Location: El Manguito
(10.2358°N, 67.3634°W)
Time: 15:30:24
(UTC+00:00)

Cosmos 1937 Rocket - Pass Details

Date: 10 September 2024
Orbit: 743 x 778 km, 74.0° (Epoch: 15 October)

Event Time Altitude Azimuth Distance (km) Brightness Sun altitude
Rises 23:41:45 0° 360° (N) 3,243 6.9 -17.7°
Reaches altitude 10° 23:44:16 10° 7° (N) 2,319 6.0 -18.3°
Maximum altitude 23:49:11 40° 76° (ENE) 1,137 3.9 -19.5°
Enters shadow 23:49:48 38° 93° (E) 1,165 3.9 -19.7°
